Content
SEND FEEDBACK

Daily
Averages
Monthly
Summary
Spain

SANTA CRUZ DE TENERIFE, SPAIN


Home > Europe > Spain
Elevation: 151 feet     Latitude: 28 27N     Longitude: 016 15W

WEATHER
 
SELECT A DAY
Number of Records: 207,409;   Date Range: 7/1/96 - 9/16/14
 
SHARE

PRINT THIS DATA

[ ← Previous Day ]
WEATHER ALMANAC - MARCH 19, 2013
[ Next Day → ]
[ °C ]   °F
Weather ElementAverageHighLow
Temperature59.4 °F64.4 °F (1:00 pm)57.2 °F (6:30 am)
Dewpoint56.5 °F59 °F (1:00 pm)55.4 °F (6:30 am)
Humidity90.2 %100 % (8:00 am)82 % (12:00 pm)
Barometer29.99 in30.06 in (10:00 pm)29.92 in (6:30 am)
Wind Speed20.3 mph25.3 mph (6:30 pm)
Wind Gust35.7 mph (3:00 pm)
Weather ElementAverage
Visibility6.1 mi
Wind DirectionWNW (295.2 °)

Weather ElementTotal
Precipitation---
Heating Degree Days4.2 (Base 65)
Growing Degree Days10.8 (Base 50)
Averaged from 33 records on March 19, 2013
WEATHER CONDITIONS BREAKOUT
WIND DIRECTION BREAKOUT
WEATHER BY HOUR - MARCH 19, 2013
[ °C ]   °F
Local TimeTemperatureDewpointHumidityBarometerVisibilityWind DirectionWind SpeedGust SpeedPrecipitationEventsConditions
6:30 AM57.2 °F55.4 °F94 %29.92 in6.2 miWNW (290°)11.5 mphMostly Cloudy
7:00 AM57.2 °F55.4 °F94 %29.92 in5.0 miWNW (290°)13.8 mphDrizzle
7:30 AM57.2 °F55.4 °F94 %29.95 in5.6 miWNW (290°)12.7 mphFogDrizzle
8:00 AM57.2 °F57.2 °F100 %29.95 in5.6 miWNW (300°)17.3 mphFogDrizzle
8:30 AM57.2 °F57.2 °F100 %29.95 in5.6 miWNW (300°)16.1 mphFogDrizzle
9:00 AM57.2 °F55.4 °F94 %29.98 in5.6 miWNW (290°)15.0 mph26.5 mphFogDrizzle
9:30 AM57.2 °F57.2 °F100 %29.98 in5.6 miWNW (290°)18.4 mphFogDrizzle
10:00 AM57.2 °F57.2 °F100 %29.98 in6.2 miWNW (290°)18.4 mphMostly Cloudy
10:30 AM59.0 °F57.2 °F94 %29.98 in6.2 miWNW (290°)20.7 mphMostly Cloudy
11:00 AM60.8 °F57.2 °F88 %30.01 in6.2 miWest (280°)17.3 mph29.9 mphScattered Clouds
11:30 AM60.8 °F57.2 °F88 %30.01 in6.2 miWNW (290°)20.7 mphScattered Clouds
12:00 PM62.6 °F57.2 °F82 %30.01 in6.2 miWNW (290°)21.9 mphScattered Clouds
12:30 PM62.6 °F57.2 °F82 %30.01 in6.2 miWNW (290°)21.9 mphScattered Clouds
1:00 PM64.4 °F59.0 °F83 %30.01 in6.2 miWNW (290°)21.9 mphScattered Clouds
1:30 PM62.6 °F57.2 °F82 %30.01 in6.2 miWNW (290°)19.6 mphScattered Clouds
2:00 PM60.8 °F57.2 °F88 %30.01 in6.2 miWNW (290°)20.7 mphScattered Clouds
2:30 PM62.6 °F57.2 °F82 %29.98 in6.2 miWNW (290°)21.9 mphMostly Cloudy
3:00 PM62.6 °F57.2 °F82 %29.98 in6.2 miWNW (290°)20.7 mph35.7 mphMostly Cloudy
3:30 PM62.6 °F57.2 °F82 %29.98 in6.2 miWNW (290°)21.9 mphScattered Clouds
4:00 PM62.6 °F57.2 °F82 %29.98 in6.2 miWNW (300°)23.0 mphMostly Cloudy
4:30 PM60.8 °F57.2 °F88 %29.98 in6.2 miWNW (290°)21.9 mphDrizzle
4:44 PM60.8 °F57.2 °F88 %29.98 in6.2 miWNW (300°)21.9 mphDrizzle
5:00 PM59.0 °F55.4 °F88 %29.98 in6.2 miWNW (300°)23.0 mphDrizzle
5:30 PM59.0 °F57.2 °F94 %29.98 in6.2 miWNW (300°)24.2 mphMostly Cloudy
6:00 PM59.0 °F55.4 °F88 %29.98 in6.2 miWNW (300°)24.2 mphMostly Cloudy
6:30 PM59.0 °F55.4 °F88 %29.98 in6.2 miNW (310°)25.3 mphMostly Cloudy
7:00 PM59.0 °F55.4 °F88 %30.01 in6.2 miWNW (300°)24.2 mphMostly Cloudy
7:30 PM57.2 °F55.4 °F94 %30.01 in6.2 miNW (310°)24.2 mphMostly Cloudy
8:00 PM57.2 °F55.4 °F94 %30.01 in6.2 miWNW (300°)23.0 mphScattered Clouds
8:30 PM57.2 °F55.4 °F94 %30.04 in6.2 miWNW (300°)23.0 mphLight Drizzle
9:00 PM57.2 °F55.4 °F94 %30.04 in6.2 miNW (310°)20.7 mphScattered Clouds
9:30 PM57.2 °F55.4 °F94 %30.04 in6.2 miWNW (300°)19.6 mphScattered Clouds
10:00 PM57.2 °F55.4 °F94 %30.06 in6.2 miWNW (300°)20.7 mphScattered Clouds
Hourly data recorded from GCXO, located miles away from Santa Cruz de Tenerife, Spain







STORIES FROM OUR PARTNERS